Theta_e
285 284 284 283 282 282 281 281 281 281 281 281 281 281 280 280 279 279 278 278 278 278
285 284 283 282 282 281 281 281 280 280 280 280 280 279 279 279 278 277 277 276 277 277
285 284 283 282 281 281 281 281 280 279 279 279 279 278 278 276 277 276 276 277 276 277
284 283 283 281 281 281 280 279 279 279 278 278 277 277 276 276 276 276 276 276 276 276
283 282 281 280 280 280 279 279 279 278 278 277 277 276 276 275 276 275 275 276 275 275
281 281 280 279 279 279 279 278 278 278 277 276 276 276 276 276 275 275 275 275 275 275
281 281 280 280 279 279 278 278 278 277 277 276 275 275 275 275 275 274 275 275 275 274
282 281 280 279 279 279 278 278 278 276 275 275 275 275 275 275 275 275 274 275 275 275
281 281 280 280 279 278 278 277 277 276 275 274 274 279 281 277 275 275 275 274 274 274
282 281 280 280 279 278 277 276 276 275 275 274 274 281 282 281 275 275 274 274 274 274
282 281 280 279 278 277 277 276 275 275 274 274 273 280 282 281 276 274 274 273 274 273
282 281 280 279 278 277 276 276 275 275 273 273 273 280 281 280 275 275 273 274 273 273
283 282 281 280 279 278 278 277 275 275 274 273 272 278 281 280 274 271 272 273 273 276
282 283 282 281 279 278 276 275 274 273 272 272 271 271 280 280 275 273 270 270 271 272
Wind_Speed
11 8 9 9 10 8 6 7 5 7 7 8 7 8 7 6 5 5 5 7 5 3
10 11 11 11 8 7 8 7 8 7 8 7 8 8 7 5 5 5 5 5 5 3
12 11 12 11 12 11 9 9 9 8 7 8 7 7 6 5 5 6 3 3 5 3
12 12 11 11 11 11 10 10 10 9 9 9 7 6 6 5 5 5 5 4 4 3
12 12 11 11 11 11 12 9 9 9 9 8 7 6 6 6 6 6 5 4 4 3
11 12 12 13 12 11 11 10 8 9 9 8 7 7 6 6 6 5 5 5 4 4
13 14 13 13 12 11 10 11 10 9 9 8 7 6 6 6 6 6 5 4 4 4
13 11 10 12 12 11 11 10 9 10 7 7 7 6 7 6 6 6 5 4 4 3
11 11 11 11 11 11 10 9 9 9 10 9 6 14 15 9 5 5 5 4 4 3
13 13 12 11 11 12 11 9 9 9 9 9 7 16 16 16 5 5 5 4 3 3
14 13 11 11 11 9 8 11 10 9 9 7 8 16 17 16 6 5 5 5 4 5
14 13 12 13 12 10 9 8 9 7 8 10 6 16 16 13 6 6 5 5 5 6
14 14 14 13 13 9 8 10 7 8 8 8 7 15 16 14 4 4 4 5 6 12
13 14 14 12 9 11 10 7 8 7 5 6 7 9 17 17 5 6 5 5 5 6
Wind_Direction
148 148 145 146 146 143 142 134 134 122 118 118 115 102 93 96 102 106 92 86 81 85
152 154 153 145 143 143 133 139 138 131 127 125 111 108 114 115 116 106 103 100 103 108
159 156 153 150 149 143 140 139 142 140 136 121 112 116 118 113 114 112 125 124 115 105
160 156 152 153 147 149 146 152 152 151 139 125 124 131 121 120 133 138 139 128 120 111
156 153 152 154 154 156 156 155 153 146 130 132 132 136 141 156 164 162 158 152 145 146
157 160 164 163 160 157 152 153 155 145 143 143 149 154 166 170 168 170 175 169 175 188
173 174 171 163 161 160 162 159 158 153 147 149 153 165 171 180 180 179 181 184 199 203
171 172 165 161 163 161 166 170 159 148 144 154 166 181 180 189 188 185 183 201 218 216
170 165 172 167 166 167 170 166 158 157 164 171 185 201 197 193 188 190 189 209 227 230
174 175 176 170 171 177 176 164 173 172 177 185 190 203 204 206 190 192 196 204 213 240
174 175 171 172 182 175 175 181 183 186 191 179 205 205 212 210 185 198 201 204 210 223
176 172 174 182 184 179 177 185 192 193 185 191 200 208 216 213 174 202 207 205 216 225
173 176 184 190 186 180 191 198 188 195 194 195 190 211 216 217 166 200 212 217 226 237
179 183 190 186 176 188 191 179 190 199 179 189 186 210 220 223 190 211 210 221 226 227